Lacon, IL

7:04 AM CDT on July 28, 2016 (GMT -0500)
Lacon

Weather History for KC75 - January, 2014

Change the Weather History Date:

Friday, January 31, 2014

  Actual Average (KPIA) Record (KPIA)
Temperature  
Mean Temperature 16 °F 26 °F  
Max Temperature 18 °F 34 °F 70 °F (1989)
Min Temperature 14 °F 18 °F -13 °F (1996)
Degree Days  
Heating Degree Days 49 39  
Month to date heating degree days 1238  
Since 1 July heating degree days 3521  
Cooling Degree Days 0 0  
Month to date cooling degree days 0  
Year to date cooling degree days 0  
Moisture  
Dew Point 12 °F    
Average Humidity 81    
Maximum Humidity 91    
Minimum Humidity 73    
Precipitation  
Precipitation 0.00 in 0.06 in 0.68 in (2002)
Month to date precipitation 1.78  
Year to date precipitation 1.78  
Snow  
Snow 0.00 in 0.20 in 5.60 in (1914)
Month to date snowfall 6.9  
Since 1 July snowfall 15.1  
Snow Depth -    
Sea Level Pressure  
Sea Level Pressure 30.10 in    
Wind  
Wind Speed 5 mph (NNW)    
Max Wind Speed 9 mph    
Max Gust Speed -    
Visibility 7 miles    
Events Snow    
T = Trace of Precipitation, MM = Missing Value Source: NWS Daily Summary

Daily Weather History Graph

Daily Weather History Graph

Search for Another Location

Airport or City:

Trip Planner

Search our weather history database for the weather conditions in past years. The results will help you decide how hot, cold, wet, or windy it might be!

Date:

Astronomy

Jan. 31, 2014 Rise Set
Actual Time 7:09 AM CST 5:13 PM CST
Civil Twilight 6:39 AM CST 5:42 PM CST
Nautical Twilight 6:07 AM CST 6:15 PM CST
Astronomical Twilight 5:34 AM CST 6:47 PM CST
Moon 7:18 AM CST (1/31) 6:38 PM CST (1/31)
Length of Visible Light 11h 02m
Length of Day
10h 04m
New Moon, 1% of the Moon is Illuminated
Jan 31
New Moon
Feb 6
First Quarter
Feb 14
Full
Feb 22
Last Quarter
Mar 1
New

Hourly Weather History & Observations

Time (CST) Temp. Windchill Dew Point Humidity Pressure Visibility Wind Dir Wind Speed Gust Speed Precip Events Conditions
12:15 AM 18.5 °F 13.3 °F 12.6 °F 78% 30.00 in 10.0 mi WNW 3.5 mph - N/A   Clear
12:35 AM 18.5 °F 10.4 °F 12.4 °F 77% 30.01 in 10.0 mi NW 5.8 mph - N/A   Clear
12:55 AM 18.5 °F 8.4 °F 12.0 °F 76% 30.02 in 10.0 mi WNW 8.1 mph - N/A   Clear
1:15 AM 18.5 °F 7.5 °F 12.0 °F 76% 30.02 in 10.0 mi NW 9.2 mph - N/A   Clear
1:35 AM 18.1 °F 7.1 °F 11.8 °F 76% 30.02 in 10.0 mi NW 9.2 mph - N/A   Clear
1:55 AM 18.0 °F 8.7 °F 11.8 °F 77% 30.03 in 10.0 mi NW 6.9 mph - N/A   Scattered Clouds
2:15 AM 18.0 °F 7.7 °F 11.7 °F 76% 30.04 in 10.0 mi NW 8.1 mph - N/A   Mostly Cloudy
2:35 AM 17.6 °F 8.2 °F 11.8 °F 78% 30.04 in 10.0 mi NW 6.9 mph - N/A   Scattered Clouds
2:55 AM 17.6 °F 6.4 °F 11.1 °F 76% 30.04 in 10.0 mi NW 9.2 mph - N/A   Scattered Clouds
3:15 AM 17.6 °F 7.3 °F 11.3 °F 76% 30.04 in 10.0 mi NW 8.1 mph - N/A   Mostly Cloudy
3:35 AM 17.4 °F 8.0 °F 10.6 °F 75% 30.05 in 10.0 mi NW 6.9 mph - N/A   Scattered Clouds
3:55 AM 17.2 °F 8.9 °F 10.4 °F 75% 30.05 in 10.0 mi NW 5.8 mph - N/A   Scattered Clouds
4:15 AM 17.2 °F 6.8 °F 10.8 °F 76% 30.05 in 10.0 mi NNW 8.1 mph - N/A   Mostly Cloudy
4:35 AM 16.7 °F 8.3 °F 10.2 °F 76% 30.05 in 10.0 mi NNW 5.8 mph - N/A   Scattered Clouds
4:55 AM 17.1 °F 10.0 °F 10.4 °F 75% 30.06 in 10.0 mi NW 4.6 mph - N/A   Scattered Clouds
5:15 AM 16.7 °F 8.3 °F 10.9 °F 78% 30.07 in 10.0 mi NW 5.8 mph - N/A   Clear
5:35 AM 16.3 °F 7.8 °F 10.8 °F 79% 30.09 in 10.0 mi NW 5.8 mph - N/A   Clear
5:55 AM 16.5 °F 8.1 °F 10.4 °F 77% 30.10 in 10.0 mi NNW 5.8 mph - N/A   Mostly Cloudy
6:15 AM 15.8 °F 7.2 °F 10.0 °F 78% 30.11 in 10.0 mi NW 5.8 mph - N/A   Mostly Cloudy
6:35 AM 15.8 °F 6.1 °F 9.5 °F 76% 30.10 in 10.0 mi NW 6.9 mph - N/A   Mostly Cloudy
6:55 AM 14.9 °F 7.5 °F 9.5 °F 79% 30.11 in 10.0 mi WNW 4.6 mph - N/A   Overcast
7:15 AM 14.9 °F 9.2 °F 9.5 °F 79% 30.11 in 10.0 mi West 3.5 mph - N/A   Overcast
7:35 AM 14.9 °F 9.2 °F 9.1 °F 78% 30.12 in 10.0 mi WNW 3.5 mph - N/A   Scattered Clouds
7:55 AM 15.3 °F 9.6 °F 8.8 °F 76% 30.14 in 10.0 mi WNW 3.5 mph - N/A   Scattered Clouds
8:15 AM 15.4 °F 8.1 °F 8.8 °F 75% 30.16 in 10.0 mi WNW 4.6 mph - N/A   Scattered Clouds
8:55 AM 14.9 °F - 8.4 °F 76% 30.15 in 10.0 mi Calm Calm - N/A   Scattered Clouds
9:15 AM 15.4 °F 9.8 °F 9.0 °F 76% 30.15 in 10.0 mi West 3.5 mph - N/A   Clear
9:35 AM 16.2 °F 9.0 °F 9.3 °F 74% 30.16 in 10.0 mi WNW 4.6 mph - N/A   Clear
9:55 AM 16.2 °F 7.6 °F 9.3 °F 74% 30.17 in 10.0 mi NW 5.8 mph - N/A   Clear
10:15 AM 16.3 °F 7.8 °F 9.5 °F 74% 30.19 in 10.0 mi NNW 5.8 mph - N/A   Scattered Clouds
10:35 AM 16.2 °F 7.6 °F 9.1 °F 74% 30.19 in 10.0 mi NNW 5.8 mph - N/A   Mostly Cloudy
10:55 AM 16.3 °F 10.8 °F 9.1 °F 73% 30.19 in 10.0 mi North 3.5 mph - N/A   Mostly Cloudy
11:15 AM 16.5 °F 9.4 °F 9.5 °F 74% 30.18 in 10.0 mi NNW 4.6 mph - N/A   Mostly Cloudy
11:35 AM 16.5 °F 9.4 °F 9.7 °F 74% 30.18 in 10.0 mi NNW 4.6 mph - N/A   Overcast
11:55 AM 16.7 °F 9.6 °F 9.5 °F 73% 30.17 in 4.0 mi NNW 4.6 mph - N/A Snow Light Snow
12:15 PM 16.5 °F 9.4 °F 10.6 °F 77% 30.16 in 3.0 mi North 4.6 mph - N/A Snow Light Snow
12:35 PM 16.7 °F - 10.6 °F 77% 30.15 in 10.0 mi Calm Calm - N/A   Mostly Cloudy
12:55 PM 16.5 °F 8.1 °F 10.6 °F 77% 30.14 in 1.8 mi NNE 5.8 mph - N/A Snow Light Snow
1:15 PM 16.2 °F 7.6 °F 11.8 °F 83% 30.14 in 1.5 mi North 5.8 mph - N/A Snow Light Snow
1:35 PM 15.8 °F 8.6 °F 12.2 °F 86% 30.13 in 1.0 mi North 4.6 mph - N/A Snow Light Snow
1:55 PM 16.2 °F 6.5 °F 12.7 °F 86% 30.13 in 0.8 mi North 6.9 mph - N/A Snow Light Snow
2:15 PM 16.5 °F 6.9 °F 13.1 °F 86% 30.12 in 1.2 mi North 6.9 mph - N/A Snow Light Snow
2:35 PM 18.0 °F 7.7 °F 14.4 °F 86% 30.11 in 3.0 mi North 8.1 mph - N/A Snow Light Snow
2:55 PM 17.4 °F 12.1 °F 13.3 °F 84% 30.11 in 5.0 mi North 3.5 mph - N/A Snow Light Snow
3:15 PM 17.4 °F 10.4 °F 13.3 °F 84% 30.11 in 3.0 mi North 4.6 mph - N/A Snow Light Snow
3:35 PM 17.2 °F - 13.1 °F 84% 30.13 in 4.0 mi Calm Calm - N/A Snow Light Snow
4:15 PM 17.6 °F - 13.3 °F 83% 30.12 in 3.0 mi Calm Calm - N/A Snow Light Snow
4:35 PM 17.2 °F - 13.5 °F 85% 30.11 in 3.0 mi Calm Calm - N/A Snow Light Snow
4:55 PM 17.4 °F - 13.6 °F 85% 30.11 in 3.0 mi Calm Calm - N/A Snow Light Snow
5:15 PM 18.0 °F - 14.0 °F 84% 30.11 in 7.0 mi Calm Calm - N/A   Scattered Clouds
5:35 PM 18.0 °F - 14.5 °F 86% 30.11 in 10.0 mi Calm Calm - N/A Snow Light Snow
5:55 PM 17.6 °F 12.3 °F 14.0 °F 86% 30.11 in 7.0 mi East 3.5 mph - N/A Snow Light Snow
6:15 PM 17.6 °F 12.3 °F 14.0 °F 86% 30.11 in 4.0 mi East 3.5 mph - N/A Snow Light Snow
6:35 PM 17.6 °F 10.7 °F 14.0 °F 86% 30.11 in 4.0 mi East 4.6 mph - N/A Snow Light Snow
6:55 PM 17.4 °F - 14.4 °F 88% 30.11 in 2.5 mi Calm Calm - N/A Snow Light Snow
7:15 PM 17.2 °F - 14.2 °F 88% 30.11 in 1.8 mi Calm Calm - N/A Snow Light Snow
7:35 PM 17.2 °F - 14.5 °F 89% 30.11 in 2.0 mi Calm Calm - N/A Snow Light Snow
7:55 PM 17.2 °F - 14.7 °F 90% 30.11 in 2.5 mi Calm Calm - N/A Snow Light Snow
8:15 PM 17.2 °F - 14.7 °F 90% 30.10 in 4.0 mi Calm Calm - N/A Snow Light Snow
8:35 PM 17.4 °F - 14.9 °F 90% 30.11 in 5.0 mi Calm Calm - N/A Snow Light Snow
8:55 PM 17.4 °F - 14.9 °F 90% 30.10 in 5.0 mi Calm Calm - N/A Snow Light Snow
9:15 PM 17.6 °F - 14.9 °F 89% 30.10 in 5.0 mi Calm Calm - N/A Snow Light Snow
9:35 PM 18.0 °F 12.7 °F 14.9 °F 88% 30.09 in 7.0 mi NE 3.5 mph - N/A Snow Light Snow
9:55 PM 18.0 °F - 15.3 °F 89% 30.08 in 5.0 mi Calm Calm - N/A Snow Light Snow
10:15 PM 18.1 °F 12.9 °F 15.4 °F 89% 30.07 in 5.0 mi NE 3.5 mph - N/A Snow Light Snow
10:35 PM 18.1 °F - 15.4 °F 89% - 4.0 mi Calm Calm - N/A Snow Light Snow
10:55 PM 18.1 °F - 15.6 °F 90% 30.07 in 4.0 mi Calm Calm - N/A Snow Light Snow
11:15 PM 18.5 °F - 15.8 °F 89% 30.06 in 3.0 mi Calm Calm - N/A Snow Light Snow
11:35 PM 18.5 °F - 16.2 °F 91% 30.06 in 5.0 mi Calm Calm - N/A Snow Light Snow
11:55 PM 18.9 °F - 16.3 °F 90% 30.05 in 7.0 mi Calm Calm - N/A Snow Light Snow